Time,TemperatureF,DewpointF,PressureIn,WindDirection,WindDirectionDegrees,WindSpeedMPH,WindSpeedGustMPH,Humidity,HourlyPrecipIn,Conditions,Clouds,dailyrainin,SolarRadiationWatts/m^2,SoftwareType,DateUTC
2013-03-04 00:01:00,19.0,7.0,-100.00,North,6,4.0,6.0,60,0.00,,,0.00,0.000000,,2013-03-04 09:01:00,
2013-03-04 00:11:00,19.0,7.0,-100.00,North,6,4.0,6.0,60,0.00,,,0.00,0.000000,,2013-03-04 09:11:00,
2013-03-04 00:21:00,19.0,7.0,-100.00,North,6,4.0,6.0,60,0.00,,,0.00,0.000000,,2013-03-04 09:21:00,
2013-03-04 00:31:00,19.0,7.0,-100.00,North,6,4.0,6.0,60,0.00,,,0.00,0.000000,,2013-03-04 09:31:00,
2013-03-04 00:52:00,19.0,7.0,-100.00,NNW,344,2.0,4.0,58,0.00,,,0.00,0.000000,,2013-03-04 09:52:00,
2013-03-04 01:01:00,19.0,7.0,-100.00,NNW,344,2.0,4.0,58,0.00,,,0.00,0.000000,,2013-03-04 10:01:00,
2013-03-04 01:11:00,19.0,7.0,-100.00,NNW,344,2.0,4.0,58,0.00,,,0.00,0.000000,,2013-03-04 10:11:00,
2013-03-04 01:21:00,19.0,7.0,-100.00,NNW,344,2.0,4.0,58,0.00,,,0.00,0.000000,,2013-03-04 10:21:00,
2013-03-04 01:31:00,19.0,7.0,-100.00,NNW,344,2.0,4.0,58,0.00,,,0.00,0.000000,,2013-03-04 10:31:00,
2013-03-04 01:52:00,19.0,7.0,-100.00,North,352,3.0,4.0,58,0.00,,,0.00,0.000000,,2013-03-04 10:52:00,
2013-03-04 02:01:00,19.0,7.0,-100.00,North,352,3.0,4.0,58,0.00,,,0.00,0.000000,,2013-03-04 11:01:00,
2013-03-04 02:11:00,19.0,7.0,-100.00,North,352,3.0,4.0,58,0.00,,,0.00,0.000000,,2013-03-04 11:11:00,
2013-03-04 02:21:00,19.0,7.0,-100.00,North,352,3.0,4.0,58,0.00,,,0.00,0.000000,,2013-03-04 11:21:00,
2013-03-04 02:31:00,19.0,7.0,-100.00,North,352,3.0,4.0,58,0.00,,,0.00,0.000000,,2013-03-04 11:31:00,
2013-03-04 02:52:00,18.0,5.0,-100.00,NNW,333,2.0,4.0,56,0.00,,,0.00,0.000000,,2013-03-04 11:52:00,
2013-03-04 03:01:00,18.0,5.0,-100.00,NNW,333,2.0,4.0,56,0.00,,,0.00,0.000000,,2013-03-04 12:01:00,
2013-03-04 03:11:00,18.0,5.0,-100.00,NNW,333,2.0,4.0,56,0.00,,,0.00,0.000000,,2013-03-04 12:11:00,
2013-03-04 03:22:00,18.0,5.0,-100.00,NNW,333,2.0,4.0,56,0.00,,,0.00,0.000000,,2013-03-04 12:22:00,
2013-03-04 03:32:00,18.0,5.0,-100.00,NNW,333,2.0,4.0,56,0.00,,,0.00,0.000000,,2013-03-04 12:32:00,
2013-03-04 03:53:00,19.0,6.0,-100.00,NNW,332,1.0,2.0,55,0.00,,,0.00,0.000000,,2013-03-04 12:53:00,
2013-03-04 04:02:00,19.0,6.0,-100.00,NNW,332,1.0,2.0,55,0.00,,,0.00,0.000000,,2013-03-04 13:02:00,
2013-03-04 04:11:00,19.0,6.0,-100.00,NNW,332,1.0,2.0,55,0.00,,,0.00,0.000000,,2013-03-04 13:11:00,
2013-03-04 04:21:00,19.0,6.0,-100.00,NNW,332,1.0,2.0,55,0.00,,,0.00,0.000000,,2013-03-04 13:21:00,
2013-03-04 04:31:00,19.0,6.0,-100.00,NNW,332,1.0,2.0,55,0.00,,,0.00,0.000000,,2013-03-04 13:31:00,
2013-03-04 04:52:00,18.0,5.0,-100.00,NNW,341,0.0,1.0,57,0.00,,,0.00,0.000000,,2013-03-04 13:52:00,
2013-03-04 05:01:00,18.0,5.0,-100.00,NNW,341,0.0,1.0,57,0.00,,,0.00,0.000000,,2013-03-04 14:01:00,
2013-03-04 05:11:00,18.0,5.0,-100.00,NNW,341,0.0,1.0,57,0.00,,,0.00,0.000000,,2013-03-04 14:11:00,
2013-03-04 05:22:00,18.0,5.0,-100.00,NNW,341,0.0,1.0,57,0.00,,,0.00,0.000000,,2013-03-04 14:22:00,
2013-03-04 05:31:00,18.0,5.0,-100.00,NNW,341,0.0,1.0,57,0.00,,,0.00,0.000000,,2013-03-04 14:31:00,
2013-03-04 05:52:00,18.0,5.0,-100.00,NW,314,2.0,3.0,56,0.00,,,0.00,0.000000,,2013-03-04 14:52:00,
2013-03-04 06:01:00,18.0,5.0,-100.00,NW,314,2.0,3.0,56,0.00,,,0.00,0.000000,,2013-03-04 15:01:00,
2013-03-04 06:11:00,18.0,5.0,-100.00,NW,314,2.0,3.0,56,0.00,,,0.00,0.000000,,2013-03-04 15:11:00,
2013-03-04 06:21:00,18.0,5.0,-100.00,NW,314,2.0,3.0,56,0.00,,,0.00,0.000000,,2013-03-04 15:21:00,
2013-03-04 06:31:00,18.0,5.0,-100.00,NW,314,2.0,3.0,56,0.00,,,0.00,0.000000,,2013-03-04 15:31:00,
2013-03-04 06:52:00,19.0,6.0,-100.00,NW,309,2.0,4.0,55,0.00,,,0.00,0.000000,,2013-03-04 15:52:00,
2013-03-04 07:02:00,19.0,6.0,-100.00,NW,309,2.0,4.0,55,0.00,,,0.00,0.000000,,2013-03-04 16:02:00,
2013-03-04 07:11:00,19.0,6.0,-100.00,NW,309,2.0,4.0,55,0.00,,,0.00,0.000000,,2013-03-04 16:11:00,
2013-03-04 07:21:00,19.0,6.0,-100.00,NW,309,2.0,4.0,55,0.00,,,0.00,0.000000,,2013-03-04 16:21:00,
2013-03-04 07:31:00,19.0,6.0,-100.00,NW,309,2.0,4.0,55,0.00,,,0.00,0.000000,,2013-03-04 16:31:00,
2013-03-04 07:52:00,18.0,6.0,-100.00,NW,318,2.0,5.0,58,0.00,,,0.00,0.000000,,2013-03-04 16:52:00,
2013-03-04 08:02:00,18.0,6.0,-100.00,NW,318,2.0,5.0,58,0.00,,,0.00,0.000000,,2013-03-04 17:02:00,
2013-03-04 08:11:00,18.0,6.0,-100.00,NW,318,2.0,5.0,58,0.00,,,0.00,0.000000,,2013-03-04 17:11:00,
2013-03-04 08:21:00,18.0,6.0,-100.00,NW,318,2.0,5.0,58,0.00,,,0.00,0.000000,,2013-03-04 17:21:00,
2013-03-04 08:31:00,18.0,6.0,-100.00,NW,318,2.0,5.0,58,0.00,,,0.00,0.000000,,2013-03-04 17:31:00,
2013-03-04 08:52:00,19.0,6.0,-100.00,NW,323,2.0,3.0,57,0.00,,,0.00,34.000000,,2013-03-04 17:52:00,
2013-03-04 09:01:00,19.0,6.0,-100.00,NW,323,2.0,3.0,57,0.00,,,0.00,34.000000,,2013-03-04 18:01:00,
2013-03-04 09:11:00,19.0,6.0,-100.00,NW,323,2.0,3.0,57,0.00,,,0.00,34.000000,,2013-03-04 18:11:00,
2013-03-04 09:21:00,19.0,6.0,-100.00,NW,323,2.0,3.0,57,0.00,,,0.00,34.000000,,2013-03-04 18:21:00,
2013-03-04 09:31:00,19.0,6.0,-100.00,NW,323,2.0,3.0,57,0.00,,,0.00,34.000000,,2013-03-04 18:31:00,
2013-03-04 09:52:00,20.0,6.0,-100.00,NNW,345,3.0,5.0,55,0.00,,,0.00,153.000000,,2013-03-04 18:52:00,
2013-03-04 10:01:00,20.0,6.0,-100.00,NNW,345,3.0,5.0,55,0.00,,,0.00,153.000000,,2013-03-04 19:01:00,
2013-03-04 10:11:00,20.0,6.0,-100.00,NNW,345,3.0,5.0,55,0.00,,,0.00,153.000000,,2013-03-04 19:11:00,
2013-03-04 10:21:00,20.0,6.0,-100.00,NNW,345,3.0,5.0,55,0.00,,,0.00,153.000000,,2013-03-04 19:21:00,
2013-03-04 10:31:00,20.0,6.0,-100.00,NNW,345,3.0,5.0,55,0.00,,,0.00,153.000000,,2013-03-04 19:31:00,
2013-03-04 10:52:00,21.0,7.0,-100.00,NNE,13,3.0,4.0,53,0.00,,,0.00,263.000000,,2013-03-04 19:52:00,
2013-03-04 11:01:00,21.0,7.0,-100.00,NNE,13,3.0,4.0,53,0.00,,,0.00,263.000000,,2013-03-04 20:01:00,
2013-03-04 11:11:00,21.0,7.0,-100.00,NNE,13,3.0,4.0,53,0.00,,,0.00,263.000000,,2013-03-04 20:11:00,
2013-03-04 11:21:00,21.0,7.0,-100.00,NNE,13,3.0,4.0,53,0.00,,,0.00,263.000000,,2013-03-04 20:21:00,
2013-03-04 11:31:00,21.0,7.0,-100.00,NNE,13,3.0,4.0,53,0.00,,,0.00,263.000000,,2013-03-04 20:31:00,
2013-03-04 11:52:00,22.0,6.0,-100.00,NNW,346,2.0,5.0,49,0.00,,,0.00,365.000000,,2013-03-04 20:52:00,
2013-03-04 12:01:00,22.0,6.0,-100.00,NNW,346,2.0,5.0,49,0.00,,,0.00,365.000000,,2013-03-04 21:01:00,
2013-03-04 12:11:00,22.0,6.0,-100.00,NNW,346,2.0,5.0,49,0.00,,,0.00,365.000000,,2013-03-04 21:11:00,
2013-03-04 12:21:00,22.0,6.0,-100.00,NNW,346,2.0,5.0,49,0.00,,,0.00,365.000000,,2013-03-04 21:21:00,
2013-03-04 12:31:00,22.0,6.0,-100.00,NNW,346,2.0,5.0,49,0.00,,,0.00,365.000000,,2013-03-04 21:31:00,
2013-03-04 12:52:00,24.0,7.0,-100.00,North,0,1.0,2.0,48,0.01,,,0.01,403.000000,,2013-03-04 21:52:00,
2013-03-04 13:01:00,24.0,7.0,-100.00,North,0,1.0,2.0,48,0.01,,,0.01,403.000000,,2013-03-04 22:01:00,
2013-03-04 13:11:00,24.0,7.0,-100.00,North,0,1.0,2.0,48,0.01,,,0.01,403.000000,,2013-03-04 22:11:00,
2013-03-04 13:21:00,24.0,7.0,-100.00,North,0,1.0,2.0,48,0.01,,,0.01,403.000000,,2013-03-04 22:21:00,
2013-03-04 13:31:00,24.0,7.0,-100.00,North,0,1.0,2.0,48,0.01,,,0.01,403.000000,,2013-03-04 22:31:00,
2013-03-04 13:52:00,25.0,8.0,-100.00,WNW,300,1.0,3.0,47,-99.99,,,0.00,383.000000,,2013-03-04 22:52:00,
2013-03-04 14:01:00,25.0,8.0,-100.00,WNW,300,1.0,3.0,47,-99.99,,,0.00,383.000000,,2013-03-04 23:01:00,
2013-03-04 14:11:00,25.0,8.0,-100.00,WNW,300,1.0,3.0,47,-99.99,,,0.00,383.000000,,2013-03-04 23:11:00,
2013-03-04 14:21:00,25.0,8.0,-100.00,WNW,300,1.0,3.0,47,-99.99,,,0.00,383.000000,,2013-03-04 23:21:00,
2013-03-04 14:31:00,25.0,8.0,-100.00,WNW,300,1.0,3.0,47,-99.99,,,0.00,383.000000,,2013-03-04 23:31:00,
2013-03-04 14:52:00,25.0,8.0,-100.00,WNW,298,1.0,2.0,48,0.00,,,0.00,327.000000,,2013-03-04 23:52:00,
2013-03-04 15:01:00,25.0,8.0,-100.00,WNW,298,1.0,2.0,48,0.00,,,0.00,327.000000,,2013-03-05 00:01:00,
2013-03-04 15:11:00,25.0,8.0,-100.00,WNW,298,1.0,2.0,48,0.00,,,0.00,327.000000,,2013-03-05 00:11:00,
2013-03-04 15:21:00,25.0,8.0,-100.00,WNW,298,1.0,2.0,48,0.00,,,0.00,327.000000,,2013-03-05 00:21:00,
2013-03-04 15:32:00,25.0,8.0,-100.00,WNW,298,1.0,2.0,48,0.00,,,0.00,327.000000,,2013-03-05 00:32:00,
2013-03-04 15:52:00,24.0,7.0,-100.00,NNW,330,2.0,4.0,48,0.01,,,0.01,192.000000,,2013-03-05 00:52:00,
2013-03-04 16:01:00,24.0,7.0,-100.00,NNW,330,2.0,4.0,48,0.01,,,0.01,192.000000,,2013-03-05 01:01:00,
2013-03-04 16:11:00,24.0,7.0,-100.00,NNW,330,2.0,4.0,48,0.01,,,0.01,192.000000,,2013-03-05 01:11:00,
2013-03-04 16:21:00,24.0,7.0,-100.00,NNW,330,2.0,4.0,48,0.01,,,0.01,192.000000,,2013-03-05 01:21:00,
2013-03-04 16:32:00,24.0,7.0,-100.00,NNW,330,2.0,4.0,48,0.01,,,0.01,192.000000,,2013-03-05 01:32:00,
2013-03-04 16:52:00,23.0,6.0,-100.00,NNW,338,2.0,2.0,47,-99.99,,,0.00,112.000000,,2013-03-05 01:52:00,
2013-03-04 17:01:00,23.0,6.0,-100.00,NNW,338,2.0,2.0,47,-99.99,,,0.00,112.000000,,2013-03-05 02:01:00,
2013-03-04 17:11:00,23.0,6.0,-100.00,NNW,338,2.0,2.0,47,-99.99,,,0.00,112.000000,,2013-03-05 02:11:00,
2013-03-04 17:21:00,23.0,6.0,-100.00,NNW,338,2.0,2.0,47,-99.99,,,0.00,112.000000,,2013-03-05 02:21:00,
2013-03-04 17:31:00,23.0,6.0,-100.00,NNW,338,2.0,2.0,47,-99.99,,,0.00,112.000000,,2013-03-05 02:31:00,
2013-03-04 17:52:00,23.0,6.0,-100.00,WNW,303,2.0,3.0,48,0.00,,,0.00,37.000000,,2013-03-05 02:52:00,
2013-03-04 18:01:00,23.0,6.0,-100.00,WNW,303,2.0,3.0,48,0.00,,,0.00,37.000000,,2013-03-05 03:01:00,
2013-03-04 18:12:00,23.0,6.0,-100.00,WNW,303,2.0,3.0,48,0.00,,,0.00,37.000000,,2013-03-05 03:12:00,
2013-03-04 18:21:00,23.0,6.0,-100.00,WNW,303,2.0,3.0,48,0.00,,,0.00,37.000000,,2013-03-05 03:21:00,
2013-03-04 18:31:00,23.0,6.0,-100.00,WNW,303,2.0,3.0,48,0.00,,,0.00,37.000000,,2013-03-05 03:31:00,
2013-03-04 18:52:00,22.0,7.0,-100.00,WNW,299,2.0,3.0,51,0.00,,,0.00,2.000000,,2013-03-05 03:52:00,
2013-03-04 19:01:00,22.0,7.0,-100.00,WNW,299,2.0,3.0,51,0.00,,,0.00,2.000000,,2013-03-05 04:01:00,
2013-03-04 19:11:00,22.0,7.0,-100.00,WNW,299,2.0,3.0,51,0.00,,,0.00,2.000000,,2013-03-05 04:11:00,
2013-03-04 19:21:00,22.0,7.0,-100.00,WNW,299,2.0,3.0,51,0.00,,,0.00,2.000000,,2013-03-05 04:21:00,
2013-03-04 19:31:00,22.0,7.0,-100.00,WNW,299,2.0,3.0,51,0.00,,,0.00,2.000000,,2013-03-05 04:31:00,
2013-03-04 19:52:00,21.0,5.0,-100.00,NW,307,4.0,6.0,49,0.00,,,0.00,0.000000,,2013-03-05 04:52:00,
2013-03-04 20:01:00,21.0,5.0,-100.00,NW,307,4.0,6.0,49,0.00,,,0.00,0.000000,,2013-03-05 05:01:00,
2013-03-04 20:11:00,21.0,5.0,-100.00,NW,307,4.0,6.0,49,0.00,,,0.00,0.000000,,2013-03-05 05:11:00,
2013-03-04 20:22:00,21.0,5.0,-100.00,NW,307,4.0,6.0,49,0.00,,,0.00,0.000000,,2013-03-05 05:22:00,
2013-03-04 20:31:00,21.0,5.0,-100.00,NW,307,4.0,6.0,49,0.00,,,0.00,0.000000,,2013-03-05 05:31:00,
2013-03-04 20:52:00,21.0,4.0,-100.00,NNW,332,3.0,5.0,48,0.00,,,0.00,0.000000,,2013-03-05 05:52:00,
2013-03-04 21:01:00,21.0,4.0,-100.00,NNW,332,3.0,5.0,48,0.00,,,0.00,0.000000,,2013-03-05 06:01:00,
2013-03-04 21:11:00,21.0,4.0,-100.00,NNW,332,3.0,5.0,48,0.00,,,0.00,0.000000,,2013-03-05 06:11:00,
2013-03-04 21:22:00,21.0,4.0,-100.00,NNW,332,3.0,5.0,48,0.00,,,0.00,0.000000,,2013-03-05 06:22:00,
2013-03-04 21:31:00,21.0,4.0,-100.00,NNW,332,3.0,5.0,48,0.00,,,0.00,0.000000,,2013-03-05 06:31:00,
2013-03-04 21:52:00,20.0,5.0,-100.00,North,358,4.0,6.0,51,0.00,,,0.00,0.000000,,2013-03-05 06:52:00,
2013-03-04 22:01:00,20.0,5.0,-100.00,North,358,4.0,6.0,51,0.00,,,0.00,0.000000,,2013-03-05 07:01:00,
2013-03-04 22:11:00,20.0,5.0,-100.00,North,358,4.0,6.0,51,0.00,,,0.00,0.000000,,2013-03-05 07:11:00,
2013-03-04 22:21:00,20.0,5.0,-100.00,North,358,4.0,6.0,51,0.00,,,0.00,0.000000,,2013-03-05 07:21:00,
2013-03-04 22:31:00,20.0,5.0,-100.00,North,358,4.0,6.0,51,0.00,,,0.00,0.000000,,2013-03-05 07:31:00,
2013-03-04 22:52:00,20.0,4.0,-100.00,NW,313,3.0,5.0,49,0.00,,,0.00,0.000000,,2013-03-05 07:52:00,
2013-03-04 23:02:00,20.0,4.0,-100.00,NW,313,3.0,5.0,49,0.00,,,0.00,0.000000,,2013-03-05 08:02:00,
2013-03-04 23:11:00,20.0,4.0,-100.00,NW,313,3.0,5.0,49,0.00,,,0.00,0.000000,,2013-03-05 08:11:00,
2013-03-04 23:21:00,20.0,4.0,-100.00,NW,313,3.0,5.0,49,0.00,,,0.00,0.000000,,2013-03-05 08:21:00,
2013-03-04 23:31:00,20.0,4.0,-100.00,NW,313,3.0,5.0,49,0.00,,,0.00,0.000000,,2013-03-05 08:31:00,
2013-03-04 23:52:00,21.0,4.0,-100.00,NW,314,2.0,4.0,47,0.00,,,0.00,0.000000,,2013-03-05 08:52:00,